Location: Archemont
(49.1579°N, 1.7598°E)
Time: 09:06:09
(UTC+00:00)

BlueWalker 3 - Pass Details

Date: 28 February 2024
Orbit: 485 x 495 km, 53.2° (Epoch: 24 April)

Event Time Altitude Azimuth Distance (km) Brightness Sun altitude
Rises 18:33:44 0° 288° (WNW) 2,565 7.1 -10.6°
Reaches altitude 10° 18:35:58 10° 294° (WNW) 1,680 5.8 -11.0°
Maximum altitude 18:39:40 49° 10° (N) 637 2.4 -11.6°
Enters shadow 18:42:09 19° 80° (E) 1,228 3.3 -12.0°
